Location: Houston
(29.7630°N, 95.3630°W)
Time: 06:44:55
(UTC-06:00)

Saudisat 1A - Visible Passes

Search period start: 04 March 2015 00:00
Search period end: 14 March 2015 01:00
Orbit: 586 x 615 km, 64.6° (Epoch: 03 March)

Date Brightness Start Highest point End Pass type
(mag) Time Alt. Az. Time Alt. Az. Time Alt. Az.
04 Mar 7.9 05:11:56 36° NW 05:13:43 77° WSW 05:18:09 10° SSE visible
04 Mar 8.3 19:09:20 10° SW 19:13:38 69° WNW 19:18:00 10° NNE visible
05 Mar 11.1 03:47:56 12° E 03:47:56 12° E 03:48:25 10° E visible
05 Mar 8.5 05:24:48 36° WSW 05:24:59 36° WSW 05:29:02 10° S visible
05 Mar 9.7 19:21:07 10° WSW 19:25:04 33° WNW 19:29:01 10° N visible
06 Mar 11.0 04:00:54 10° ESE 04:00:54 10° ESE 04:00:56 10° ESE visible
06 Mar 9.9 05:37:46 15° SW 05:37:46 15° SW 05:39:06 10° SSW visible
06 Mar 10.8 19:33:38 10° W 19:36:38 17° NW 19:39:31 10° N visible
